Location: Poughquag
(41.6090°N, 73.6820°W)
Time: 11:24:27
(UTC-04:00)

Tiros 1 despin weight - Pass Details

Date: 01 June 2020
Orbit: 593 x 642 km, 48.2° (Epoch: 07 July)

Event Time Altitude Azimuth Distance (km) Brightness Sun altitude
Rises 13:01:41 0° 279° (W) 2,912 ? 70.5°
Reaches altitude 10° 13:04:10 10° 288° (WNW) 1,997 ? 70.4°
Maximum altitude 13:08:25 36° 355° (N) 984 ? 70.3°
Drops below altitude 10° 13:12:36 10° 63° (ENE) 1,968 ? 70.1°
Sets 13:15:03 0° 72° (ENE) 2,864 ? 70.0°
